Location: Burbank
(38.7788°N, 114.0429°W)
Time: 22:03:56
(UTC+00:00)

Transit 2A - Pass Details

Date: 17 May 2026
Orbit: 595 x 949 km, 66.7° (Epoch: 5 June)

Event Time Altitude Azimuth Distance (km) Brightness Sun altitude
Rises 07:50:57 0° 332° (NNW) 3,131 9.9 -31.7°
Reaches altitude 10° 07:53:24 10° 333° (NNW) 2,152 9.0 -31.7°
Enters shadow 07:56:08 33° 337° (NNW) 1,121 7.2 -31.6°
Maximum altitude 07:58:14 82° 61° (ENE) 659 - -31.6°
Drops below altitude 10° 08:02:40 10° 150° (SSE) 1,973 - -31.4°
Sets 08:04:51 0° 151° (SSE) 2,849 - -31.4°
